| time (UTC) | temp C | wind direction | speed KPH | gust KPH | rain 1hr cm | rain 24hr cm | rain mn cm | humidity % | barometer mb |
| 20260906222127 | 37 | 166 | 3.2 | 4.8 | 0.00 | 0.13 | 0.13 | 40 | 1012.0 |
| 20260906221626 | 37 | 163 | 6.4 | 9.7 | 0.00 | 0.13 | 0.13 | 41 | 1012.1 |
| 20260906221121 | 37 | 356 | 3.2 | 8.0 | 0.00 | 0.13 | 0.13 | 42 | 1012.0 |
| 20260906220617 | 37 | 101 | 1.6 | 4.8 | 0.00 | 0.13 | 0.13 | 41 | 1012.1 |
| 20260906220112 | 37 | 181 | 6.4 | 9.7 | 0.00 | 0.13 | 0.13 | 41 | 1011.8 |
| 20260906215611 | 36 | 161 | 6.4 | 8.0 | 0.00 | 0.13 | 0.13 | 42 | 1012.1 |
| 20260906215109 | 37 | 122 | 12.9 | 14.5 | 0.00 | 0.13 | 0.13 | 42 | 1012.0 |
| 20260906214607 | 37 | 188 | 6.4 | 8.0 | 0.00 | 0.13 | 0.13 | 42 | 1012.1 |
| 20260906214103 | 37 | 128 | 8.0 | 9.7 | 0.00 | 0.13 | 0.13 | 42 | 1012.2 |
| 20260906213601 | 37 | 135 | 12.9 | 14.5 | 0.00 | 0.13 | 0.13 | 42 | 1012.2 |
| 20260906213056 | 37 | 170 | 0.0 | 1.6 | 0.00 | 0.13 | 0.13 | 41 | 1012.1 |
| 20260906212544 | 37 | 131 | 8.0 | 9.7 | 0.00 | 0.13 | 0.13 | 42 | 1012.2 |
| 20260906212040 | 37 | 11 | 0.0 | 1.6 | 0.00 | 0.13 | 0.13 | 43 | 1012.4 |
| 20260906211539 | 37 | 180 | 6.4 | 8.0 | 0.00 | 0.13 | 0.13 | 43 | 1012.5 |
| 20260906211035 | 37 | 203 | 8.0 | 11.3 | 0.00 | 0.13 | 0.13 | 41 | 1012.6 |
| 20260906210530 | 37 | 131 | 11.3 | 12.9 | 0.00 | 0.13 | 0.13 | 42 | 1012.7 |
| 20260906210030 | 37 | 205 | 4.8 | 8.0 | 0.00 | 0.13 | 0.13 | 42 | 1012.8 |
| 20260906205525 | 37 | 162 | 3.2 | 3.2 | 0.00 | 0.13 | 0.13 | 42 | 1012.9 |
| 20260906205022 | 37 | 129 | 9.7 | 12.9 | 0.00 | 0.13 | 0.13 | 42 | 1012.9 |
| 20260906204520 | 37 | 163 | 8.0 | 11.3 | 0.00 | 0.13 | 0.13 | 42 | 1012.9 |
| 20260906204015 | 37 | 176 | 4.8 | 4.8 | 0.00 | 0.13 | 0.13 | 43 | 1013.1 |
| 20260906203510 | 37 | 146 | 8.0 | 11.3 | 0.00 | 0.13 | 0.13 | 43 | 1013.0 |
| 20260906203009 | 37 | 106 | 1.6 | 3.2 | 0.00 | 0.13 | 0.13 | 43 | 1013.2 |
| 20260906202506 | 37 | 168 | 8.0 | 12.9 | 0.00 | 0.13 | 0.13 | 41 | 1013.2 |
| 20260906202001 | 37 | 121 | 9.7 | 12.9 | 0.00 | 0.13 | 0.13 | 42 | 1013.3 |
| 20260906201455 | 37 | 126 | 0.0 | 1.6 | 0.00 | 0.13 | 0.13 | 42 | 1013.0 |
| 20260906200950 | 37 | 163 | 8.0 | 11.3 | 0.00 | 0.13 | 0.13 | 42 | 1013.1 |
| 20260906200447 | 37 | 161 | 4.8 | 9.7 | 0.00 | 0.13 | 0.13 | 42 | 1013.4 |
| 20260906195946 | 37 | 143 | 11.3 | 14.5 | 0.00 | 0.13 | 0.13 | 42 | 1013.5 |
| 20260906195443 | 37 | 113 | 1.6 | 8.0 | 0.00 | 0.13 | 0.13 | 44 | 1013.4 |
| 20260906194939 | 36 | 166 | 9.7 | 11.3 | 0.00 | 0.13 | 0.13 | 42 | 1013.5 |
| 20260906194434 | 37 | 111 | 6.4 | 8.0 | 0.00 | 0.13 | 0.13 | 42 | 1013.8 |
| 20260906193929 | 36 | 136 | 4.8 | 8.0 | 0.00 | 0.13 | 0.13 | 43 | 1013.7 |
| 20260906193424 | 37 | 150 | 8.0 | 14.5 | 0.00 | 0.13 | 0.13 | 41 | 1013.5 |
| 20260906192920 | 37 | 127 | 9.7 | 11.3 | 0.00 | 0.13 | 0.13 | 42 | 1013.7 |
| 20260906192420 | 37 | 125 | 8.0 | 11.3 | 0.00 | 0.13 | 0.13 | 41 | 1013.7 |
| 20260906191919 | 36 | 107 | 3.2 | 4.8 | 0.00 | 0.13 | 0.13 | 44 | 1013.9 |
| 20260906191415 | 36 | 99 | 12.9 | 20.9 | 0.00 | 0.13 | 0.13 | 43 | 1013.9 |
| 20260906190913 | 37 | 145 | 6.4 | 8.0 | 0.00 | 0.13 | 0.13 | 44 | 1014.0 |
| 20260906190412 | 36 | 124 | 9.7 | 12.9 | 0.00 | 0.13 | 0.13 | 45 | 1013.9 |
| 20260906185908 | 36 | 151 | 9.7 | 14.5 | 0.00 | 0.13 | 0.13 | 45 | 1014.0 |
| 20260906185407 | 36 | 92 | 6.4 | 9.7 | 0.00 | 0.13 | 0.13 | 43 | 1014.0 |
| 20260906184901 | 36 | 170 | 4.8 | 8.0 | 0.00 | 0.13 | 0.13 | 45 | 1014.2 |
| 20260906184356 | 36 | 162 | 6.4 | 9.7 | 0.00 | 0.13 | 0.13 | 43 | 1014.2 |
| 20260906183851 | 36 | 141 | 6.4 | 8.0 | 0.00 | 0.13 | 0.13 | 46 | 1014.2 |
| 20260906183348 | 36 | 117 | 6.4 | 9.7 | 0.00 | 0.13 | 0.13 | 46 | 1014.4 |
| 20260906182847 | 36 | 122 | 9.7 | 12.9 | 0.00 | 0.13 | 0.13 | 45 | 1014.3 |
| 20260906182344 | 36 | 138 | 4.8 | 8.0 | 0.00 | 0.13 | 0.13 | 45 | 1014.3 |
| 20260906181844 | 36 | 132 | 9.7 | 12.9 | 0.00 | 0.13 | 0.13 | 45 | 1014.4 |
| 20260906181340 | 36 | 142 | 9.7 | 12.9 | 0.00 | 0.13 | 0.13 | 47 | 1014.5 |
| 20260906180836 | 36 | 102 | 6.4 | 9.7 | 0.00 | 0.13 | 0.13 | 45 | 1014.8 |
| 20260906180330 | 36 | 133 | 4.8 | 8.0 | 0.00 | 0.13 | 0.13 | 45 | 1014.8 |
| 20260906175827 | 36 | 120 | 8.0 | 9.7 | 0.00 | 0.13 | 0.13 | 46 | 1014.8 |
| 20260906175323 | 36 | 125 | 4.8 | 9.7 | 0.00 | 0.13 | 0.13 | 46 | 1014.9 |
| 20260906174822 | 35 | 132 | 8.0 | 11.3 | 0.00 | 0.13 | 0.13 | 46 | 1014.9 |
| 20260906174322 | 35 | 95 | 8.0 | 12.9 | 0.00 | 0.13 | 0.13 | 48 | 1015.0 |
| 20260906173817 | 35 | 147 | 11.3 | 12.9 | 0.00 | 0.13 | 0.13 | 46 | 1014.9 |
| 20260906173312 | 35 | 158 | 8.0 | 12.9 | 0.00 | 0.13 | 0.13 | 46 | 1015.1 |
| 20260906172811 | 35 | 144 | 11.3 | 14.5 | 0.00 | 0.13 | 0.13 | 49 | 1015.2 |
| 20260906172307 | 35 | 136 | 9.7 | 11.3 | 0.00 | 0.13 | 0.13 | 45 | 1015.3 |
| 20260906171802 | 35 | 148 | 0.0 | 1.6 | 0.00 | 0.13 | 0.13 | 50 | 1015.3 |
| 20260906171257 | 35 | 124 | 8.0 | 9.7 | 0.00 | 0.13 | 0.13 | 52 | 1015.2 |
| 20260906170753 | 35 | 131 | 4.8 | 8.0 | 0.00 | 0.13 | 0.13 | 53 | 1015.3 |
| 20260906170248 | 35 | 111 | 4.8 | 9.7 | 0.00 | 0.13 | 0.13 | 52 | 1015.3 |
| 20260906165744 | 35 | 182 | 9.7 | 14.5 | 0.00 | 0.13 | 0.13 | 52 | 1015.6 |
| 20260906165243 | 35 | 176 | 4.8 | 8.0 | 0.00 | 0.13 | 0.13 | 53 | 1015.5 |
| 20260906164743 | 35 | 133 | 3.2 | 3.2 | 0.00 | 0.13 | 0.13 | 53 | 1015.6 |
| 20260906164238 | 34 | 118 | 4.8 | 4.8 | 0.00 | 0.13 | 0.13 | 52 | 1015.7 |
| 20260906163734 | 35 | 123 | 6.4 | 9.7 | 0.00 | 0.13 | 0.13 | 51 | 1015.8 |
| 20260906163230 | 34 | 98 | 1.6 | 1.6 | 0.00 | 0.13 | 0.13 | 52 | 1015.5 |
| 20260906162727 | 34 | 127 | 9.7 | 12.9 | 0.00 | 0.13 | 0.13 | 53 | 1015.7 |
| 20260906162222 | 35 | 122 | 6.4 | 9.7 | 0.00 | 0.13 | 0.13 | 52 | 1015.6 |
| 20260906161716 | 33 | 79 | 6.4 | 9.7 | 0.00 | 0.13 | 0.13 | 53 | 1015.6 |
| 20260906161216 | 34 | 157 | 4.8 | 4.8 | 0.00 | 0.13 | 0.13 | 53 | 1015.5 |
| 20260906160715 | 33 | 123 | 1.6 | 1.6 | 0.00 | 0.13 | 0.13 | 52 | 1015.6 |
| 20260906160214 | 33 | 144 | 9.7 | 11.3 | 0.00 | 0.13 | 0.13 | 55 | 1015.4 |
| 20260906155712 | 33 | 123 | 4.8 | 4.8 | 0.00 | 0.13 | 0.13 | 54 | 1015.6 |
| 20260906155207 | 34 | 128 | 9.7 | 12.9 | 0.00 | 0.13 | 0.13 | 54 | 1015.3 |
| 20260906154703 | 33 | 72 | 1.6 | 1.6 | 0.00 | 0.13 | 0.13 | 55 | 1015.4 |
| 20260906154202 | 33 | 152 | 0.0 | 0.0 | 0.00 | 0.13 | 0.13 | 57 | 1015.3 |
| 20260906153701 | 33 | 179 | 3.2 | 4.8 | 0.00 | 0.13 | 0.13 | 55 | 1015.4 |
| 20260906153155 | 33 | 15 | 1.6 | 3.2 | 0.00 | 0.13 | 0.13 | 57 | 1015.0 |
| 20260906152651 | 32 | 131 | 6.4 | 8.0 | 0.00 | 0.13 | 0.13 | 56 | 1015.1 |
| 20260906152145 | 32 | 132 | 6.4 | 8.0 | 0.00 | 0.13 | 0.13 | 59 | 1015.3 |
| 20260906151639 | 32 | 125 | 0.0 | 0.0 | 0.00 | 0.13 | 0.13 | 61 | 1015.1 |
| 20260906151136 | 32 | 140 | 1.6 | 1.6 | 0.00 | 0.13 | 0.13 | 63 | 1015.1 |
| 20260906150630 | 31 | 161 | 1.6 | 1.6 | 0.00 | 0.13 | 0.13 | 65 | 1015.0 |
| 20260906150126 | 31 | 134 | 0.0 | 0.0 | 0.00 | 0.13 | 0.13 | 64 | 1014.7 |
| 20260906145625 | 31 | 175 | 1.6 | 1.6 | 0.00 | 0.13 | 0.13 | 66 | 1015.0 |
| 20260906145119 | 31 | 137 | 0.0 | 0.0 | 0.00 | 0.13 | 0.13 | 68 | 1014.9 |
| 20260906144614 | 31 | 127 | 1.6 | 3.2 | 0.00 | 0.13 | 0.13 | 68 | 1015.0 |
| 20260906144109 | 30 | 126 | 1.6 | 3.2 | 0.00 | 0.13 | 0.13 | 69 | 1014.9 |
| 20260906143604 | 30 | 28 | 0.0 | 1.6 | 0.00 | 0.13 | 0.13 | 70 | 1015.0 |
| 20260906143100 | 30 | 128 | 3.2 | 3.2 | 0.00 | 0.13 | 0.13 | 70 | 1014.8 |
| 20260906142559 | 30 | 128 | 1.6 | 3.2 | 0.00 | 0.13 | 0.13 | 71 | 1014.9 |
| 20260906142055 | 30 | 159 | 0.0 | 0.0 | 0.00 | 0.13 | 0.13 | 72 | 1015.0 |
| 20260906141554 | 29 | 161 | 1.6 | 3.2 | 0.00 | 0.13 | 0.13 | 73 | 1015.1 |
| 20260906141049 | 29 | 116 | 0.0 | 1.6 | 0.00 | 0.13 | 0.13 | 75 | 1015.0 |
| 20260906140548 | 28 | 88 | 0.0 | 0.0 | 0.00 | 0.13 | 0.13 | 76 | 1015.2 |
| 20260906140043 | 28 | 52 | 0.0 | 0.0 | 0.00 | 0.13 | 0.13 | 78 | 1015.2 |
| 20260906135539 | 28 | 159 | 1.6 | 1.6 | 0.00 | 0.13 | 0.13 | 78 | 1015.2 |
| 20260906135036 | 27 | 130 | 3.2 | 3.2 | 0.00 | 0.13 | 0.13 | 81 | 1015.0 |
| 20260906134531 | 26 | 130 | 1.6 | 3.2 | 0.00 | 0.13 | 0.13 | 83 | 1015.1 |
| 20260906134026 | 26 | 132 | 0.0 | 0.0 | 0.00 | 0.13 | 0.13 | 86 | 1015.1 |
| 20260906133522 | 26 | 157 | 4.8 | 4.8 | 0.00 | 0.13 | 0.13 | 87 | 1015.2 |
| 20260906133017 | 26 | 147 | 3.2 | 4.8 | 0.00 | 0.13 | 0.13 | 88 | 1015.4 |
| 20260906132513 | 26 | 129 | 4.8 | 8.0 | 0.00 | 0.13 | 0.13 | 89 | 1015.2 |
| 20260906132008 | 25 | 132 | 0.0 | 0.0 | 0.00 | 0.13 | 0.13 | 90 | 1015.5 |
| 20260906131503 | 26 | 130 | 0.0 | 0.0 | 0.00 | 0.13 | 0.13 | 88 | 1014.9 |
| 20260906130958 | 25 | 139 | 1.6 | 3.2 | 0.30 | 0.13 | 0.13 | 88 | 1015.1 |
| 20260906130457 | 25 | 130 | 0.0 | 1.6 | 0.43 | 0.13 | 0.13 | 89 | 1015.0 |
| 20260906125952 | 25 | 123 | 0.0 | 0.0 | 0.30 | 0.08 | 0.08 | 88 | 1015.0 |
| 20260906125450 | 26 | 134 | 0.0 | 0.0 | 0.30 | 0.05 | 0.05 | 88 | 1014.8 |
| 20260906124949 | 26 | 147 | 0.0 | 0.0 | 0.13 | 0.03 | 0.03 | 87 | 1014.9 |
| 20260906124444 | 26 | 167 | 0.0 | 0.0 | 0.00 | 0.00 | 0.00 | 85 | 1014.7 |
| 20260906123939 | 25 | 168 | 0.0 | 0.0 | 0.00 | 0.00 | 0.00 | 85 | 1014.8 |
| 20260906123439 | 25 | 168 | 0.0 | 0.0 | 0.00 | 0.00 | 0.00 | 85 | 1015.0 |
| 20260906122933 | 25 | 168 | 0.0 | 0.0 | 0.00 | 0.00 | 0.00 | 85 | 1014.7 |
| 20260906122428 | 25 | 168 | 0.0 | 0.0 | 0.00 | 0.00 | 0.00 | 85 | 1014.7 |
| 20260906121925 | 25 | 168 | 0.0 | 0.0 | 0.00 | 0.00 | 0.00 | 86 | 1014.7 |
| 20260906121421 | 25 | 168 | 0.0 | 0.0 | 0.00 | 0.00 | 0.00 | 85 | 1014.6 |
| 20260906120917 | 25 | 168 | 0.0 | 0.0 | 0.00 | 0.00 | 0.00 | 85 | 1014.4 |
| 20260906120412 | 25 | 168 | 0.0 | 0.0 | 0.00 | 0.00 | 0.00 | 85 | 1014.7 |
| 20260906115908 | 26 | 168 | 0.0 | 0.0 | 0.00 | 0.00 | 0.00 | 84 | 1014.5 |
| 20260906115404 | 26 | 168 | 0.0 | 0.0 | 0.00 | 0.00 | 0.00 | 84 | 1014.5 |
| 20260906114903 | 26 | 168 | 0.0 | 0.0 | 0.00 | 0.00 | 0.00 | 84 | 1014.5 |
| 20260906114357 | 26 | 168 | 0.0 | 0.0 | 0.00 | 0.00 | 0.00 | 83 | 1014.5 |
| 20260906113853 | 26 | 168 | 0.0 | 0.0 | 0.00 | 0.00 | 0.00 | 83 | 1014.5 |
| 20260906113352 | 26 | 168 | 0.0 | 0.0 | 0.00 | 0.00 | 0.00 | 82 | 1014.4 |
| 20260906112847 | 26 | 168 | 0.0 | 0.0 | 0.00 | 0.00 | 0.00 | 82 | 1014.4 |
| 20260906112344 | 26 | 168 | 0.0 | 0.0 | 0.00 | 0.00 | 0.00 | 82 | 1014.3 |
| 20260906111844 | 26 | 168 | 0.0 | 0.0 | 0.00 | 0.00 | 0.00 | 81 | 1014.2 |
| 20260906111343 | 26 | 168 | 0.0 | 0.0 | 0.00 | 0.00 | 0.00 | 81 | 1014.0 |
| 20260906110838 | 26 | 168 | 0.0 | 0.0 | 0.00 | 0.00 | 0.00 | 80 | 1014.0 |
| 20260906110334 | 26 | 168 | 0.0 | 0.0 | 0.00 | 0.00 | 0.00 | 79 | 1014.0 |
| 20260906105833 | 27 | 168 | 0.0 | 0.0 | 0.00 | 0.00 | 0.00 | 79 | 1013.8 |
| 20260906105329 | 27 | 168 | 0.0 | 0.0 | 0.00 | 0.00 | 0.00 | 78 | 1014.0 |
| 20260906104825 | 27 | 168 | 1.6 | 1.6 | 0.00 | 0.00 | 0.00 | 78 | 1013.8 |
| 20260906104323 | 27 | 127 | 0.0 | 1.6 | 0.00 | 0.00 | 0.00 | 78 | 1013.9 |
| 20260906103822 | 27 | 114 | 3.2 | 3.2 | 0.00 | 0.00 | 0.00 | 78 | 1013.8 |
| 20260906103315 | 26 | 172 | 0.0 | 1.6 | 0.00 | 0.00 | 0.00 | 81 | 1014.0 |
| 20260906102811 | 26 | 172 | 0.0 | 0.0 | 0.00 | 0.00 | 0.00 | 81 | 1013.8 |
| 20260906102310 | 26 | 172 | 0.0 | 0.0 | 0.00 | 0.00 | 0.00 | 81 | 1013.7 |
| 20260906101806 | 26 | 172 | 0.0 | 0.0 | 0.00 | 0.00 | 0.00 | 80 | 1013.9 |
| 20260906101306 | 26 | 172 | 0.0 | 0.0 | 0.00 | 0.00 | 0.00 | 80 | 1013.7 |
| 20260906100802 | 26 | 172 | 0.0 | 0.0 | 0.00 | 0.00 | 0.00 | 80 | 1013.7 |
| 20260906100300 | 27 | 172 | 0.0 | 0.0 | 0.00 | 0.00 | 0.00 | 80 | 1013.6 |
| 20260906095756 | 27 | 172 | 0.0 | 0.0 | 0.00 | 0.00 | 0.00 | 79 | 1013.8 |
| 20260906095251 | 27 | 172 | 0.0 | 0.0 | 0.00 | 0.00 | 0.00 | 78 | 1013.7 |
| 20260906094750 | 27 | 172 | 0.0 | 0.0 | 0.00 | 0.00 | 0.00 | 78 | 1013.4 |
| 20260906094245 | 27 | 172 | 0.0 | 0.0 | 0.00 | 0.00 | 0.00 | 77 | 1013.6 |
| 20260906093741 | 27 | 172 | 0.0 | 0.0 | 0.00 | 0.00 | 0.00 | 77 | 1013.8 |
| 20260906093232 | 27 | 172 | 0.0 | 0.0 | 0.00 | 0.00 | 0.00 | 76 | 1013.8 |
| 20260906092727 | 27 | 170 | 1.6 | 3.2 | 0.00 | 0.00 | 0.00 | 76 | 1013.7 |
| 20260906092227 | 27 | 132 | 0.0 | 0.0 | 0.00 | 0.00 | 0.00 | 76 | 1013.7 |
| 20260906091723 | 27 | 135 | 0.0 | 1.6 | 0.00 | 0.00 | 0.00 | 75 | 1013.5 |
| 20260906091219 | 27 | 169 | 1.6 | 1.6 | 0.00 | 0.00 | 0.00 | 75 | 1013.5 |
| 20260906090715 | 27 | 169 | 3.2 | 3.2 | 0.00 | 0.00 | 0.00 | 75 | 1013.3 |
| 20260906090213 | 28 | 238 | 4.8 | 4.8 | 0.00 | 0.00 | 0.00 | 75 | 1013.4 |
| 20260906085713 | 28 | 145 | 1.6 | 1.6 | 0.00 | 0.00 | 0.00 | 74 | 1013.0 |
| 20260906085206 | 28 | 190 | 3.2 | 4.8 | 0.00 | 0.00 | 0.00 | 74 | 1013.2 |
| 20260906084701 | 28 | 188 | 4.8 | 8.0 | 0.00 | 0.00 | 0.00 | 74 | 1013.4 |
| 20260906084200 | 28 | 173 | 3.2 | 4.8 | 0.00 | 0.00 | 0.00 | 74 | 1013.3 |
| 20260906083655 | 28 | 169 | 3.2 | 3.2 | 0.00 | 0.00 | 0.00 | 73 | 1013.4 |
| 20260906083151 | 28 | 179 | 6.4 | 8.0 | 0.00 | 0.00 | 0.00 | 73 | 1013.3 |
| 20260906082646 | 28 | 143 | 3.2 | 3.2 | 0.00 | 0.00 | 0.00 | 73 | 1013.2 |
| 20260906082141 | 28 | 164 | 4.8 | 4.8 | 0.00 | 0.00 | 0.00 | 73 | 1012.9 |
| 20260906081638 | 28 | 168 | 1.6 | 1.6 | 0.00 | 0.00 | 0.00 | 73 | 1013.0 |
| 20260906081132 | 28 | 164 | 1.6 | 3.2 | 0.00 | 0.00 | 0.00 | 72 | 1013.1 |
| 20260906080629 | 28 | 189 | 3.2 | 3.2 | 0.00 | 0.00 | 0.00 | 72 | 1013.2 |
| 20260906080124 | 28 | 154 | 4.8 | 4.8 | 0.00 | 0.00 | 0.00 | 71 | 1013.1 |
| 20260906075618 | 28 | 221 | 4.8 | 4.8 | 0.00 | 0.00 | 0.00 | 71 | 1013.1 |
| 20260906075113 | 28 | 153 | 3.2 | 3.2 | 0.00 | 0.00 | 0.00 | 71 | 1013.3 |
| 20260906074608 | 28 | 176 | 4.8 | 4.8 | 0.00 | 0.00 | 0.00 | 71 | 1013.2 |
| 20260906074107 | 28 | 150 | 3.2 | 3.2 | 0.00 | 0.00 | 0.00 | 71 | 1013.2 |
| 20260906073602 | 28 | 173 | 3.2 | 3.2 | 0.00 | 0.00 | 0.00 | 71 | 1013.3 |
| 20260906073058 | 29 | 165 | 3.2 | 3.2 | 0.00 | 0.00 | 0.00 | 70 | 1013.5 |
| 20260906072558 | 29 | 160 | 3.2 | 3.2 | 0.00 | 0.00 | 0.00 | 70 | 1013.4 |
| 20260906072055 | 28 | 168 | 3.2 | 3.2 | 0.00 | 0.00 | 0.00 | 70 | 1013.7 |
| 20260906071551 | 29 | 169 | 1.6 | 1.6 | 0.00 | 0.00 | 0.00 | 69 | 1013.4 |
| 20260906071045 | 29 | 164 | 1.6 | 1.6 | 0.00 | 0.00 | 0.00 | 69 | 1013.5 |
| 20260906070542 | 29 | 152 | 1.6 | 3.2 | 0.00 | 0.00 | 0.00 | 69 | 1013.6 |
| 20260906070037 | 29 | 141 | 3.2 | 3.2 | 0.00 | 0.00 | 0.00 | 69 | 1013.7 |
| 20260906065536 | 29 | 137 | 3.2 | 3.2 | 0.00 | 0.00 | 0.00 | 68 | 1013.7 |
| 20260906065032 | 29 | 149 | 1.6 | 3.2 | 0.00 | 0.00 | 0.00 | 69 | 1013.6 |
| 20260906064528 | 29 | 143 | 1.6 | 3.2 | 0.00 | 0.00 | 0.00 | 68 | 1013.4 |
| 20260906064022 | 29 | 134 | 3.2 | 3.2 | 0.00 | 0.00 | 0.00 | 68 | 1013.5 |
| 20260906063518 | 29 | 171 | 3.2 | 3.2 | 0.00 | 0.00 | 0.00 | 68 | 1013.6 |
| 20260906063008 | 29 | 170 | 1.6 | 3.2 | 0.00 | 0.00 | 0.00 | 68 | 1013.6 |
| 20260906062502 | 30 | 112 | 3.2 | 3.2 | 0.00 | 0.00 | 0.00 | 67 | 1013.5 |
| 20260906061957 | 29 | 159 | 3.2 | 3.2 | 0.00 | 0.00 | 0.00 | 67 | 1013.5 |
| 20260906061453 | 30 | 116 | 1.6 | 1.6 | 0.00 | 0.00 | 0.00 | 67 | 1013.4 |
| 20260906060947 | 30 | 174 | 1.6 | 1.6 | 0.00 | 0.00 | 0.00 | 66 | 1013.4 |
| 20260906060444 | 30 | 142 | 1.6 | 3.2 | 0.00 | 0.00 | 0.00 | 66 | 1013.3 |
| 20260906055940 | 30 | 144 | 3.2 | 3.2 | 0.00 | 0.00 | 0.00 | 66 | 1013.5 |
| 20260906055431 | 30 | 160 | 1.6 | 3.2 | 0.00 | 0.00 | 0.00 | 65 | 1013.5 |
| 20260906054926 | 30 | 168 | 3.2 | 3.2 | 0.00 | 0.00 | 0.00 | 65 | 1013.6 |
| 20260906054421 | 30 | 159 | 3.2 | 4.8 | 0.00 | 0.00 | 0.00 | 65 | 1013.7 |
| 20260906053917 | 30 | 130 | 4.8 | 4.8 | 0.00 | 0.00 | 0.00 | 65 | 1013.6 |
| 20260906053413 | 30 | 147 | 1.6 | 3.2 | 0.00 | 0.00 | 0.00 | 64 | 1013.6 |
| 20260906052908 | 30 | 151 | 3.2 | 3.2 | 0.00 | 0.00 | 0.00 | 64 | 1013.7 |
| 20260906052404 | 30 | 149 | 3.2 | 3.2 | 0.00 | 0.00 | 0.00 | 64 | 1013.9 |
| 20260906051901 | 30 | 175 | 3.2 | 3.2 | 0.00 | 0.00 | 0.00 | 63 | 1013.9 |
| 20260906051401 | 30 | 163 | 1.6 | 3.2 | 0.00 | 0.00 | 0.00 | 63 | 1013.7 |
| 20260906050856 | 30 | 149 | 3.2 | 3.2 | 0.00 | 0.00 | 0.00 | 63 | 1014.0 |
| 20260906050350 | 30 | 140 | 0.0 | 1.6 | 0.00 | 0.00 | 0.00 | 63 | 1013.7 |
| 20260906045849 | 30 | 152 | 3.2 | 3.2 | 0.00 | 0.00 | 0.00 | 62 | 1013.8 |
| 20260906045344 | 30 | 173 | 1.6 | 1.6 | 0.00 | 0.00 | 0.00 | 62 | 1013.6 |
| 20260906044840 | 30 | 166 | 3.2 | 3.2 | 0.00 | 0.00 | 0.00 | 61 | 1013.7 |
| 20260906044335 | 30 | 69 | 4.8 | 4.8 | 0.00 | 0.00 | 0.00 | 61 | 1013.5 |
| 20260906043831 | 30 | 156 | 3.2 | 3.2 | 0.00 | 0.00 | 0.00 | 61 | 1013.6 |
| 20260906043327 | 30 | 174 | 1.6 | 3.2 | 0.00 | 0.00 | 0.00 | 61 | 1013.6 |
| 20260906042826 | 30 | 134 | 1.6 | 3.2 | 0.00 | 0.00 | 0.00 | 61 | 1013.5 |
| 20260906042320 | 31 | 175 | 3.2 | 3.2 | 0.00 | 0.00 | 0.00 | 60 | 1013.8 |
| 20260906041816 | 31 | 174 | 3.2 | 3.2 | 0.00 | 0.00 | 0.00 | 60 | 1013.6 |
| 20260906041311 | 31 | 144 | 4.8 | 4.8 | 0.00 | 0.00 | 0.00 | 60 | 1013.7 |
| 20260906040806 | 31 | 152 | 3.2 | 4.8 | 0.00 | 0.00 | 0.00 | 60 | 1013.5 |
| 20260906040301 | 31 | 135 | 3.2 | 3.2 | 0.00 | 0.00 | 0.00 | 60 | 1013.3 |
| 20260906035756 | 31 | 166 | 3.2 | 3.2 | 0.00 | 0.00 | 0.00 | 59 | 1013.6 |
| 20260906035251 | 31 | 157 | 1.6 | 3.2 | 0.00 | 0.00 | 0.00 | 59 | 1013.9 |
| 20260906034746 | 31 | 151 | 1.6 | 3.2 | 0.00 | 0.00 | 0.00 | 59 | 1013.6 |
| 20260906034241 | 31 | 138 | 3.2 | 3.2 | 0.00 | 0.00 | 0.00 | 58 | 1013.4 |
| 20260906033737 | 31 | 173 | 3.2 | 4.8 | 0.00 | 0.00 | 0.00 | 58 | 1013.4 |
| 20260906033236 | 31 | 161 | 4.8 | 4.8 | 0.00 | 0.00 | 0.00 | 58 | 1013.8 |
| 20260906032733 | 31 | 152 | 6.4 | 9.7 | 0.00 | 0.00 | 0.00 | 58 | 1013.7 |
| 20260906032232 | 31 | 142 | 8.0 | 11.3 | 0.00 | 0.00 | 0.00 | 58 | 1013.6 |
| 20260906031727 | 31 | 147 | 6.4 | 8.0 | 0.00 | 0.00 | 0.00 | 57 | 1013.7 |
| 20260906031223 | 31 | 168 | 8.0 | 8.0 | 0.00 | 0.00 | 0.00 | 57 | 1013.9 |
| 20260906030723 | 31 | 124 | 9.7 | 12.9 | 0.00 | 0.00 | 0.00 | 58 | 1013.6 |
| 20260906030218 | 31 | 119 | 6.4 | 9.7 | 0.00 | 0.00 | 0.00 | 58 | 1013.6 |
| 20260906025718 | 32 | 153 | 6.4 | 9.7 | 0.00 | 0.00 | 0.00 | 58 | 1013.4 |
| 20260906025212 | 32 | 123 | 9.7 | 11.3 | 0.00 | 0.00 | 0.00 | 58 | 1013.5 |
| 20260906024711 | 32 | 136 | 6.4 | 9.7 | 0.00 | 0.00 | 0.00 | 57 | 1013.6 |
| 20260906024211 | 32 | 189 | 6.4 | 8.0 | 0.00 | 0.00 | 0.00 | 57 | 1013.3 |
| 20260906023707 | 32 | 165 | 6.4 | 9.7 | 0.00 | 0.00 | 0.00 | 56 | 1013.5 |
| 20260906023207 | 32 | 164 | 4.8 | 4.8 | 0.00 | 0.00 | 0.00 | 55 | 1013.1 |
| 20260906022702 | 33 | 178 | 4.8 | 8.0 | 0.00 | 0.00 | 0.00 | 53 | 1012.9 |
| 20260906022157 | 33 | 166 | 11.3 | 12.9 | 0.00 | 0.00 | 0.00 | 53 | 1012.8 |
| 20260906021653 | 33 | 125 | 16.1 | 20.9 | 0.00 | 0.00 | 0.00 | 53 | 1012.9 |
| 20260906021151 | 33 | 146 | 9.7 | 14.5 | 0.00 | 0.00 | 0.00 | 52 | 1012.8 |
| 20260906020641 | 33 | 135 | 8.0 | 11.3 | 0.00 | 0.00 | 0.00 | 51 | 1012.9 |
| 20260906020136 | 33 | 133 | 9.7 | 12.9 | 0.00 | 0.00 | 0.00 | 50 | 1012.7 |
| 20260906015636 | 33 | 138 | 4.8 | 8.0 | 0.00 | 0.00 | 0.00 | 49 | 1012.6 |
| 20260906015134 | 33 | 116 | 1.6 | 1.6 | 0.00 | 0.00 | 0.00 | 49 | 1012.3 |
| 20260906014628 | 34 | 102 | 1.6 | 1.6 | 0.00 | 0.00 | 0.00 | 49 | 1012.5 |
| 20260906014125 | 34 | 133 | 3.2 | 4.8 | 0.00 | 0.00 | 0.00 | 49 | 1012.1 |
| 20260906013620 | 34 | 119 | 4.8 | 4.8 | 0.00 | 0.00 | 0.00 | 48 | 1012.3 |
| 20260906013115 | 34 | 95 | 0.0 | 1.6 | 0.00 | 0.00 | 0.00 | 47 | 1012.2 |
| 20260906012610 | 34 | 115 | 1.6 | 1.6 | 0.00 | 0.00 | 0.00 | 46 | 1012.2 |
| 20260906012105 | 34 | 93 | 0.0 | 0.0 | 0.00 | 0.00 | 0.00 | 45 | 1012.1 |
| 20260906011601 | 34 | 138 | 4.8 | 4.8 | 0.00 | 0.00 | 0.00 | 44 | 1011.9 |
| 20260906011100 | 34 | 122 | 1.6 | 3.2 | 0.00 | 0.00 | 0.00 | 44 | 1011.9 |
| 20260906010556 | 34 | 109 | 0.0 | 0.0 | 0.00 | 0.00 | 0.00 | 45 | 1011.8 |
| 20260906010052 | 35 | 106 | 0.0 | 0.0 | 0.00 | 0.00 | 0.00 | 46 | 1011.8 |
| 20260906005551 | 35 | 107 | 0.0 | 0.0 | 0.00 | 0.00 | 0.00 | 43 | 1011.9 |
| 20260906005050 | 35 | 113 | 3.2 | 4.8 | 0.00 | 0.00 | 0.00 | 42 | 1012.0 |
| 20260906004544 | 35 | 149 | 3.2 | 3.2 | 0.00 | 0.00 | 0.00 | 43 | 1011.6 |
| 20260906004039 | 35 | 127 | 6.4 | 8.0 | 0.00 | 0.00 | 0.00 | 42 | 1011.8 |
| 20260906003534 | 35 | 95 | 0.0 | 0.0 | 0.00 | 0.00 | 0.00 | 42 | 1011.9 |
| 20260906003030 | 35 | 130 | 3.2 | 4.8 | 0.00 | 0.00 | 0.00 | 42 | 1011.7 |
| 20260906002525 | 35 | 119 | 1.6 | 1.6 | 0.00 | 0.00 | 0.00 | 42 | 1011.8 |
| 20260906002020 | 35 | 133 | 1.6 | 4.8 | 0.00 | 0.00 | 0.00 | 42 | 1011.9 |
| 20260906001515 | 35 | 166 | 8.0 | 9.7 | 0.00 | 0.00 | 0.00 | 42 | 1011.9 |
| 20260906001010 | 35 | 123 | 3.2 | 4.8 | 0.00 | 0.00 | 0.00 | 42 | 1011.7 |
| 20260906000506 | 35 | 126 | 4.8 | 8.0 | 0.00 | 0.00 | 0.00 | 42 | 1012.1 |
| 20260906000006 | 36 | 128 | 3.2 | 3.2 | 0.00 | 0.00 | 0.00 | 42 | 1011.8 |
| 20260905235459 | 36 | 126 | 1.6 | 1.6 | 0.00 | 0.00 | 0.00 | 42 | 1011.6 |
| 20260905234954 | 36 | 159 | 1.6 | 4.8 | 0.00 | 0.00 | 0.00 | 42 | 1011.8 |
| 20260905234445 | 36 | 71 | 0.0 | 0.0 | 0.00 | 0.00 | 0.00 | 42 | 1011.5 |
| 20260905233944 | 36 | 117 | 0.0 | 0.0 | 0.00 | 0.00 | 0.00 | 42 | 1011.8 |
| 20260905233440 | 36 | 125 | 3.2 | 3.2 | 0.00 | 0.00 | 0.00 | 41 | 1011.8 |
| 20260905232938 | 36 | 146 | 0.0 | 1.6 | 0.00 | 0.00 | 0.00 | 42 | 1011.4 |
| 20260905231930 | 36 | 91 | 1.6 | 3.2 | 0.00 | 0.00 | 0.00 | 40 | 1011.8 |
| 20260905231426 | 36 | 167 | 3.2 | 8.0 | 0.00 | 0.00 | 0.00 | 40 | 1011.7 |
| 20260905230922 | 36 | 130 | 8.0 | 11.3 | 0.00 | 0.00 | 0.00 | 40 | 1011.5 |
| 20260905230420 | 37 | 129 | 1.6 | 3.2 | 0.00 | 0.00 | 0.00 | 40 | 1011.7 |
| 20260905225919 | 36 | 120 | 4.8 | 4.8 | 0.00 | 0.00 | 0.00 | 40 | 1011.9 |
| 20260905225414 | 37 | 152 | 8.0 | 11.3 | 0.00 | 0.00 | 0.00 | 41 | 1011.9 |
| 20260905224909 | 37 | 124 | 3.2 | 4.8 | 0.00 | 0.00 | 0.00 | 40 | 1011.6 |
| 20260905224405 | 37 | 185 | 3.2 | 4.8 | 0.00 | 0.00 | 0.00 | 40 | 1011.8 |
| 20260905223859 | 37 | 137 | 8.0 | 9.7 | 0.00 | 0.00 | 0.00 | 40 | 1011.5 |
| 20260905223357 | 37 | 135 | 1.6 | 4.8 | 0.00 | 0.00 | 0.00 | 39 | 1011.6 |
| 20260905222851 | 37 | 129 | 0.0 | 1.6 | 0.00 | 0.00 | 0.00 | 40 | 1011.7 |